"Period start","avg(HW err(1)/warn(2) (#))","avg(Visibility (m))","avg(Weather code (#))","avg(Precip intensity (mm/h))","min(HW err(1)/warn(2) (#))","max(HW err(1)/warn(2) (#))","std(HW err(1)/warn(2) (#))","med(HW err(1)/warn(2) (#))","min(Visibility (m))","max(Visibility (m))","std(Visibility (m))","med(Visibility (m))","min(Weather code (#))","max(Weather code (#))","std(Weather code (#))","med(Weather code (#))","min(Precip intensity (mm/h))","max(Precip intensity (mm/h))","std(Precip intensity (mm/h))","med(Precip intensity (mm/h))"
2013-10-09 00:00:00,2,1723,71,5.12,2,2,0,2,1188,2977,548,1630,71,71,0,71,1.55,7.00,1.63,5.45
2013-10-09 00:10:00,2,1733,71,4.66,2,2,0,2,1363,2152,240,1688,71,71,0,71,3.15,6.00,0.95,5.00
2013-10-09 00:20:00,2,1986,71,2.93,2,2,0,2,1589,2540,307,1922,71,71,0,71,1.25,4.30,0.99,3.15
2013-10-09 00:30:00,2,2614,71,1.03,2,2,0,2,2271,2897,185,2644,71,71,0,71,0.60,1.55,0.25,1.00
2013-10-09 00:40:00,2,2121,71,1.25,2,2,0,2,1939,2345,141,2138,71,71,0,71,0.70,1.75,0.29,1.27
2013-10-09 00:50:00,2,2843,71,0.69,2,2,0,2,2054,3356,385,2828,71,71,0,71,0.40,1.50,0.32,0.55
2013-10-09 01:00:00,2,5385,71,0.20,2,2,0,2,3471,7497,1436,5102,71,71,0,71,0.05,0.40,0.13,0.15
2013-10-09 01:10:00,2,9368,74,0.02,2,2,0,2,7753,10867,1013,9152,71,78,3,74,0.00,0.05,0.02,0.00
2013-10-09 01:20:00,2,12082,76,0.02,2,2,0,2,10953,14142,906,11961,71,78,3,77,0.00,0.10,0.03,0.00
2013-10-09 01:30:00,2,6464,71,0.72,2,2,0,2,3366,11015,2738,5489,71,71,0,71,0.05,1.65,0.53,0.68
2013-10-09 01:40:00,2,2574,71,1.43,2,2,0,2,2157,2949,250,2546,71,71,0,71,1.00,1.95,0.30,1.43
2013-10-09 01:50:00,2,2298,71,1.62,2,2,0,2,1943,2620,202,2321,71,71,0,71,0.90,2.55,0.52,1.58
2013-10-09 02:00:00,2,2811,71,0.93,2,2,0,2,2142,4196,638,2552,71,71,0,71,0.35,1.50,0.34,0.95
2013-10-09 02:10:00,2,3548,71,0.44,2,2,0,2,2772,4407,598,3630,71,71,0,71,0.20,0.65,0.15,0.42
2013-10-09 02:20:00,2,2800,71,0.52,2,2,0,2,2093,3478,477,2776,71,71,0,71,0.30,0.90,0.18,0.47
2013-10-09 02:30:00,2,2347,71,0.64,2,2,0,2,2163,2557,139,2369,71,71,0,71,0.45,0.75,0.11,0.65
2013-10-09 02:40:00,2,2269,71,0.61,2,2,0,2,1914,2746,233,2218,71,71,0,71,0.25,0.85,0.19,0.62
2013-10-09 02:50:00,2,2229,71,0.69,2,2,0,2,1901,2459,173,2298,71,71,0,71,0.35,1.05,0.20,0.65
2013-10-09 03:00:00,2,1945,71,0.67,2,2,0,2,1652,2182,190,2019,71,71,0,71,0.40,0.85,0.16,0.65
2013-10-09 03:10:00,2,1797,71,0.86,2,2,0,2,1605,2087,136,1822,71,71,0,71,0.60,1.45,0.24,0.78
2013-10-09 03:20:00,2,1766,71,0.80,2,2,0,2,1654,1929,107,1706,71,71,0,71,0.55,0.95,0.12,0.80
2013-10-09 03:30:00,2,1903,71,0.77,2,2,0,2,1620,2150,160,1948,71,71,0,71,0.55,1.10,0.16,0.73
2013-10-09 03:40:00,2,1815,71,0.70,2,2,0,2,1651,1970,113,1862,71,71,0,71,0.50,0.95,0.12,0.68
2013-10-09 03:50:00,2,1820,71,0.71,2,2,0,2,1520,2089,192,1848,71,71,0,71,0.45,0.85,0.12,0.73
2013-10-09 04:00:00,2,1844,71,0.74,2,2,0,2,1630,2106,155,1860,71,71,0,71,0.45,0.90,0.12,0.75
2013-10-09 04:10:00,2,2431,71,0.59,2,2,0,2,2065,2854,243,2412,71,71,0,71,0.40,0.90,0.16,0.53
2013-10-09 04:20:00,2,2525,71,0.59,2,2,0,2,2265,2839,174,2492,71,71,0,71,0.35,0.80,0.14,0.62
2013-10-09 04:30:00,2,2225,71,0.70,2,2,0,2,2082,2440,119,2194,71,71,0,71,0.50,1.00,0.16,0.70
2013-10-09 04:40:00,2,1887,71,1.14,2,2,0,2,1631,2055,131,1878,71,71,0,71,0.75,1.45,0.23,1.12
2013-10-09 04:50:00,2,1884,71,1.03,2,2,0,2,1621,2077,119,1888,71,71,0,71,0.70,1.45,0.20,1.05
2013-10-09 05:00:00,2,1848,71,1.19,2,2,0,2,1539,2173,175,1864,71,71,0,71,0.95,1.50,0.20,1.18
2013-10-09 05:10:00,2,1804,71,1.18,2,2,0,2,1508,2200,210,1774,71,71,0,71,0.75,1.80,0.30,1.12
2013-10-09 05:20:00,2,1641,71,1.56,2,2,0,2,1462,1931,139,1606,71,71,0,71,1.15,2.15,0.34,1.52
2013-10-09 05:30:00,2,1617,71,1.64,2,2,0,2,1457,1786,107,1642,71,71,0,71,1.15,2.40,0.42,1.55
2013-10-09 05:40:00,2,1598,71,1.46,2,2,0,2,1372,1732,111,1640,71,71,0,71,0.95,2.25,0.36,1.40
2013-10-09 05:50:00,2,1551,71,1.34,2,2,0,2,1325,1740,119,1594,71,71,0,71,0.85,1.80,0.26,1.38
2013-10-09 06:00:00,2,1845,71,0.81,2,2,0,2,1602,2063,120,1851,71,71,0,71,0.55,1.10,0.18,0.78
2013-10-09 06:10:00,2,2122,71,0.59,2,2,0,2,1871,2375,188,2136,71,71,0,71,0.40,0.85,0.16,0.55
2013-10-09 06:20:00,2,2819,71,0.46,2,2,0,2,2319,3245,274,2828,71,71,0,71,0.25,0.85,0.18,0.42
2013-10-09 06:30:00,2,4206,72,0.25,2,2,0,2,3109,5532,730,4294,71,77,2,71,0.10,0.40,0.08,0.23
2013-10-09 06:40:00,2,7735,77,0.06,2,2,0,2,6231,8890,850,8002,77,77,0,77,0.00,0.20,0.05,0.05
2013-10-09 06:50:00,2,6047,75,0.17,2,2,0,2,4619,7761,1108,6058,71,77,3,77,0.05,0.40,0.11,0.12
2013-10-09 07:00:00,2,4266,73,0.20,2,2,0,2,3762,4831,304,4272,71,77,3,71,0.10,0.25,0.04,0.20
2013-10-09 07:10:00,2,3552,73,0.42,2,2,0,2,3170,4046,278,3537,71,77,3,71,0.25,0.65,0.14,0.40
2013-10-09 07:20:00,2,3575,71,0.32,2,2,0,2,3097,4128,360,3510,71,71,0,71,0.20,0.45,0.08,0.33
2013-10-09 07:30:00,2,3750,73,0.28,2,2,0,2,3389,4356,279,3654,71,77,3,71,0.15,0.35,0.06,0.28
2013-10-09 07:40:00,2,3370,74,0.38,2,2,0,2,2889,3799,271,3456,71,77,3,74,0.25,0.60,0.11,0.35
2013-10-09 07:50:00,2,3917,73,0.29,2,2,0,2,3234,4600,430,3822,71,77,3,71,0.10,0.45,0.09,0.30
2013-10-09 08:00:00,2,4640,75,0.13,2,2,0,2,3689,5177,376,4707,71,78,3,77,0.05,0.25,0.06,0.10
2013-10-09 08:10:00,2,4922,77,0.16,2,2,0,2,4180,5605,372,4908,77,78,0,77,0.10,0.50,0.12,0.12
2013-10-09 08:20:00,2,5625,72,0.10,2,2,0,2,4914,6585,546,5474,71,78,3,71,0.05,0.20,0.04,0.10
2013-10-09 08:30:00,2,8306,77,0.09,2,2,0,2,5314,10665,1884,8732,77,78,0,77,0.05,0.20,0.05,0.05
2013-10-09 08:40:00,2,7921,76,0.12,2,2,0,2,6164,9869,1076,7916,71,78,2,77,0.05,0.30,0.08,0.10
2013-10-09 08:50:00,2,6539,71,0.30,2,2,0,2,5757,7532,510,6608,71,71,0,71,0.15,0.60,0.16,0.25
2013-10-09 09:00:00,2,7352,71,0.23,2,2,0,2,6344,9136,970,6878,71,71,0,71,0.10,0.50,0.11,0.20
2013-10-09 09:10:00,2,9119,72,0.11,2,2,0,2,7365,10203,899,9284,71,77,2,71,0.05,0.20,0.05,0.12
2013-10-09 09:20:00,2,4532,72,0.45,2,2,0,2,3310,6369,932,4529,71,77,2,71,0.20,1.05,0.24,0.35
2013-10-09 09:30:00,2,3218,71,0.55,2,2,0,2,3087,3500,104,3197,71,71,0,71,0.40,0.75,0.10,0.50
2013-10-09 09:40:00,2,3193,71,0.67,2,2,0,2,2861,3692,309,3080,71,71,0,71,0.35,1.10,0.27,0.60
2013-10-09 09:50:00,2,3684,71,0.52,2,2,0,2,3013,5009,654,3486,71,71,0,71,0.30,0.85,0.17,0.55
2013-10-09 10:00:00,2,5105,71,0.37,2,2,0,2,4382,5597,355,5210,71,71,0,71,0.20,0.65,0.16,0.35
2013-10-09 10:10:00,2,3956,71,0.53,2,2,0,2,3381,4635,327,3962,71,71,0,71,0.25,1.05,0.26,0.48
2013-10-09 10:20:00,2,3469,71,0.65,2,2,0,2,2816,3923,377,3616,71,71,0,71,0.35,1.15,0.27,0.53
2013-10-09 10:30:00,2,3032,71,1.07,2,2,0,2,2696,3584,273,3000,71,71,0,71,0.70,2.00,0.36,0.97
2013-10-09 10:40:00,2,3412,71,0.89,2,2,0,2,2564,3972,407,3358,71,71,0,71,0.60,1.55,0.29,0.75
2013-10-09 10:50:00,2,2701,71,1.35,2,2,0,2,2272,3151,305,2736,71,71,0,71,0.85,2.90,0.56,1.20
2013-10-09 11:00:00,2,1670,71,3.43,2,2,0,2,1125,2241,380,1602,71,71,0,71,1.95,6.00,1.17,3.25
2013-10-09 11:10:00,2,1280,71,3.88,2,2,0,2,1111,1604,128,1252,71,71,0,71,3.05,5.05,0.74,3.73
2013-10-09 11:20:00,2,1302,71,3.24,2,2,0,2,1122,1626,162,1250,71,71,0,71,2.60,4.00,0.42,3.28
2013-10-09 11:30:00,2,2023,71,1.74,2,2,0,2,1223,2836,568,1968,71,71,0,71,0.75,3.50,0.90,1.67
2013-10-09 11:40:00,2,2876,71,0.74,2,2,0,2,2278,3732,475,2787,71,71,0,71,0.40,1.50,0.30,0.73
2013-10-09 11:50:00,2,2362,71,1.27,2,2,0,2,1842,2650,249,2490,71,71,0,71,0.80,1.85,0.30,1.20
2013-10-09 12:00:00,2,1850,71,2.07,2,2,0,2,1547,2173,223,1856,71,71,0,71,1.65,2.70,0.39,2.08
2013-10-09 12:10:00,2,1246,71,4.61,2,2,0,2,1079,1533,132,1240,71,71,0,71,3.55,5.55,0.61,4.62
2013-10-09 12:20:00,2,1164,71,4.86,2,2,0,2,992,1526,157,1118,71,71,0,71,3.00,6.40,1.15,5.03
2013-10-09 12:30:00,2,1048,71,6.24,2,2,0,2,846,1423,198,968,71,71,0,71,2.90,8.40,1.54,6.40
2013-10-09 12:40:00,2,1202,71,4.25,2,2,0,2,823,1710,312,1060,71,71,0,71,1.85,6.20,1.54,4.62
2013-10-09 12:50:00,2,1131,71,4.78,2,2,0,2,998,1344,124,1100,71,71,0,71,3.55,6.00,0.80,4.90
2013-10-09 13:00:00,2,1190,71,4.37,2,2,0,2,962,1631,231,1124,71,71,0,71,2.10,5.65,1.12,4.20
2013-10-09 13:10:00,2,1556,71,3.04,2,2,0,2,1166,2332,334,1542,71,71,0,71,1.30,4.80,1.06,3.00
2013-10-09 13:20:00,2,1552,71,3.71,2,2,0,2,1366,1956,177,1508,71,71,0,71,2.15,4.80,0.77,3.52
2013-10-09 13:30:00,2,1344,71,4.24,2,2,0,2,1005,1722,219,1392,71,71,0,71,2.85,7.25,1.29,3.67
2013-10-09 13:40:00,2,1251,71,4.66,2,2,0,2,851,1625,239,1293,71,71,0,71,2.60,6.70,1.43,4.88
2013-10-09 13:50:00,2,1165,71,4.87,2,2,0,2,802,1719,256,1080,71,71,0,71,2.60,7.85,1.57,5.03
2013-10-09 14:00:00,2,1348,71,3.38,2,2,0,2,1097,1587,192,1374,71,71,0,71,1.95,5.05,0.90,3.33
2013-10-09 14:10:00,2,1130,71,4.69,2,2,0,2,971,1305,121,1115,71,71,0,71,3.25,7.50,1.12,4.28
2013-10-09 14:20:00,2,1197,71,5.47,2,2,0,2,946,1354,113,1202,71,71,0,71,4.55,6.60,0.79,5.38
2013-10-09 14:30:00,2,937,71,7.41,2,2,0,2,698,1125,125,928,71,72,0,71,4.90,11.40,1.85,7.17
2013-10-09 14:40:00,2,881,72,7.72,2,2,0,2,638,1150,162,844,71,72,0,72,5.55,9.85,1.53,7.83
2013-10-09 14:50:00,2,949,71,7.07,2,2,0,2,700,1212,160,932,71,72,0,71,4.70,11.50,1.99,6.45
2013-10-09 15:00:00,2,652,72,12.05,2,2,0,2,565,692,37,656,72,72,0,72,9.80,13.85,1.24,11.95
2013-10-09 15:10:00,2,877,72,7.85,2,2,0,2,686,1186,156,852,71,72,0,72,5.00,9.80,1.66,8.38
2013-10-09 15:20:00,2,1462,71,3.17,2,2,0,2,1244,1744,162,1422,71,71,0,71,2.40,3.55,0.34,3.33
2013-10-09 15:30:00,2,1597,71,3.04,2,2,0,2,1477,1702,78,1590,71,71,0,71,2.15,4.35,0.59,2.97
2013-10-09 15:40:00,2,2021,71,2.12,2,2,0,2,1553,2444,231,2032,71,71,0,71,1.05,2.75,0.43,2.20
2013-10-09 15:50:00,2,1980,71,3.00,2,2,0,2,1652,2326,204,1994,71,71,0,71,2.05,3.75,0.50,3.12
2013-10-09 16:00:00,2,1808,71,3.81,2,2,0,2,1321,2178,288,1756,71,71,0,71,2.80,6.25,1.07,3.50
2013-10-09 16:10:00,2,1304,71,6.35,2,2,0,2,1170,1664,153,1253,71,71,0,71,5.75,7.45,0.53,6.20
2013-10-09 16:20:00,2,1739,71,5.13,2,2,0,2,1571,1949,120,1726,71,71,0,71,4.05,6.05,0.67,5.20
2013-10-09 16:30:00,2,2995,71,2.94,2,2,0,2,2114,3910,643,2928,71,71,0,71,1.70,4.10,0.86,3.28
2013-10-09 16:40:00,2,4527,71,1.77,2,2,0,2,3209,7102,1027,4202,71,71,0,71,0.85,2.65,0.62,1.85
2013-10-09 16:50:00,2,3237,71,3.17,2,2,0,2,1916,5569,1163,3004,71,71,0,71,1.35,5.40,1.49,2.98
2013-10-09 17:00:00,2,2391,71,3.65,2,2,0,2,1813,2833,306,2396,71,71,0,71,1.85,5.80,1.11,3.50
2013-10-09 17:10:00,2,3080,71,2.55,2,2,0,2,2512,3716,332,2983,71,71,0,71,1.90,3.30,0.43,2.45
2013-10-09 17:20:00,2,4414,71,1.43,2,2,0,2,3372,5748,657,4298,71,71,0,71,0.60,1.95,0.42,1.53
2013-10-09 17:30:00,2,6130,71,0.46,2,2,0,2,4498,7231,791,5978,71,71,0,71,0.20,0.90,0.21,0.42
2013-10-09 17:40:00,2,6759,71,0.21,2,2,0,2,5786,7831,580,6651,71,71,0,71,0.10,0.35,0.08,0.23
2013-10-09 17:50:00,2,6780,71,0.26,2,2,0,2,5712,8127,839,6869,71,71,0,71,0.10,0.40,0.09,0.25
2013-10-09 18:00:00,2,5673,72,0.16,2,2,0,2,4299,6373,664,5960,71,77,2,71,0.05,0.25,0.07,0.17
2013-10-09 18:10:00,2,3764,73,0.18,2,2,0,2,3429,4349,276,3674,71,77,3,71,0.05,0.35,0.09,0.20
2013-10-09 18:20:00,2,5230,78,0.05,2,2,0,2,4497,6095,547,5111,78,78,0,78,0.05,0.05,0.00,0.05
2013-10-09 18:30:00,2,8587,78,0.04,2,2,0,2,7921,9463,443,8563,78,78,0,78,0.00,0.05,0.02,0.05
2013-10-09 18:40:00,2,11517,78,0.01,2,2,0,2,8818,16652,2257,11066,78,78,0,78,0.00,0.05,0.02,0.00
2013-10-09 18:50:00,2,11608,78,0.00,2,2,0,2,5698,16074,3599,11530,78,78,0,78,0.00,0.00,0.00,0.00
2013-10-09 19:00:00,2,7130,78,0.04,2,2,0,2,6183,8718,899,6768,77,78,0,78,0.00,0.05,0.02,0.05
2013-10-09 19:10:00,2,10213,78,0.03,2,2,0,2,8025,14988,1972,9681,77,78,0,78,0.00,0.10,0.03,0.00
2013-10-09 19:20:00,2,10897,47,0.00,2,2,0,2,7940,13335,1712,10909,0,78,38,78,0.00,0.00,0.00,0.00
2013-10-09 19:30:00,2,8654,61,0.04,2,2,0,2,5725,10828,1599,8592,0,78,31,78,0.00,0.20,0.06,0.03
2013-10-09 19:40:00,2,3717,76,0.46,2,2,0,2,3024,4923,596,3472,71,77,2,77,0.20,0.75,0.18,0.45
2013-10-09 19:50:00,2,3099,75,0.47,2,2,0,2,2685,3634,280,3057,71,77,3,77,0.35,0.70,0.11,0.42
2013-10-09 20:00:00,2,4746,77,0.23,2,2,0,2,2994,7801,1619,4479,77,78,0,77,0.05,0.50,0.16,0.20
2013-10-09 20:10:00,2,10968,78,0.01,2,2,0,2,8187,13629,1555,11032,78,78,0,78,0.00,0.05,0.02,0.00
2013-10-09 20:20:00,2,13799,78,0.00,2,2,0,2,11732,17972,1927,12951,78,78,0,78,0.00,0.00,0.00,0.00
2013-10-09 20:30:00,2,21350,78,0.00,2,2,0,2,15682,28386,4889,19116,78,78,0,78,0.00,0.00,0.00,0.00
2013-10-09 20:40:00,2,16554,78,0.00,2,2,0,2,8611,29955,6581,14088,78,78,0,78,0.00,0.00,0.00,0.00
2013-10-09 20:50:00,2,10510,78,0.00,2,2,0,2,9121,13599,1175,10201,78,78,0,78,0.00,0.00,0.00,0.00
2013-10-09 21:00:00,2,28553,70,0.00,2,2,0,2,15188,49352,12610,23156,0,78,23,78,0.00,0.00,0.00,0.00
2013-10-09 21:10:00,2,45785,0,0.00,2,2,0,2,37579,50000,3917,46470,0,0,0,0,0.00,0.00,0.00,0.00
2013-10-09 21:20:00,2,47968,0,0.00,2,2,0,2,43051,50000,2609,49424,0,0,0,0,0.00,0.00,0.00,0.00
2013-10-09 21:30:00,2,41365,0,0.00,2,2,0,2,35561,49121,4885,39680,0,0,0,0,0.00,0.00,0.00,0.00
2013-10-09 21:40:00,2,26102,0,0.00,2,2,0,2,12691,41705,11142,19810,0,0,0,0,0.00,0.00,0.00,0.00
2013-10-09 21:50:00,2,12979,0,0.00,2,2,0,2,7313,17835,3417,12778,0,0,0,0,0.00,0.00,0.00,0.00
2013-10-09 22:00:00,2,10076,0,0.00,2,2,0,2,6223,16108,2592,9714,0,0,0,0,0.00,0.00,0.00,0.00
2013-10-09 22:10:00,2,14603,0,0.00,2,2,0,2,11733,18404,2048,14132,0,0,0,0,0.00,0.00,0.00,0.00
2013-10-09 22:20:00,2,13177,76,0.02,2,2,0,2,9738,15425,1780,13700,71,78,3,78,0.00,0.05,0.02,0.00
2013-10-09 22:30:00,2,12867,78,0.02,2,2,0,2,9670,17286,2167,12800,78,78,0,78,0.00,0.10,0.03,0.00
2013-10-09 22:40:00,2,8039,73,0.47,2,2,0,2,5399,10537,1726,8062,71,77,3,71,0.05,1.75,0.50,0.30
2013-10-09 22:50:00,2,20527,71,0.17,2,2,0,2,10348,29205,6146,20668,71,71,0,71,0.00,0.45,0.14,0.12
2013-10-09 23:00:00,2,39776,71,0.00,2,2,0,2,30722,50000,6042,37927,71,71,0,71,0.00,0.00,0.00,0.00
2013-10-09 23:10:00,2,21600,75,0.03,2,2,0,2,13569,34578,6095,19474,71,78,3,77,0.00,0.15,0.05,0.00
2013-10-09 23:20:00,2,32746,57,0.00,2,2,0,2,20866,44859,6553,33005,0,71,28,71,0.00,0.00,0.00,0.00
2013-10-09 23:30:00,2,32735,14,0.00,2,2,0,2,21027,49320,9450,30703,0,71,28,0,0.00,0.00,0.00,0.00
2013-10-09 23:40:00,2,47085,72,0.01,2,2,0,2,42884,50000,3029,48410,71,77,2,71,0.00,0.05,0.02,0.00
2013-10-09 23:50:00,2,46874,78,0.00,2,2,0,2,38100,50000,3636,47951,78,78,0,78,0.00,0.00,0.00,0.00
